Time,TemperatureF,DewpointF,PressureIn,WindDirection,WindDirectionDegrees,WindSpeedMPH,WindSpeedGustMPH,Humidity,HourlyPrecipIn,Conditions,Clouds,dailyrainin,SoftwareType,DateUTC
2013-07-03 00:00:00,61.8,55.9,30.04,NNE,19,0.0,3.0,81,0.00,,---,0.00,VWS V14.01,2013-07-03 05:00:00,
2013-07-03 00:03:00,61.8,55.9,30.04,NNE,19,0.0,0.0,81,0.00,,---,0.00,VWS V14.01,2013-07-03 05:03:00,
2013-07-03 00:07:00,61.8,56.2,30.04,NNE,19,0.0,0.0,82,0.00,,---,0.00,VWS V14.01,2013-07-03 05:07:00,
2013-07-03 00:12:00,61.7,56.2,30.04,NNE,19,0.0,0.0,82,0.00,,---,0.00,VWS V14.01,2013-07-03 05:12:00,
2013-07-03 00:17:00,61.5,56.0,30.04,NNE,19,0.0,1.0,82,0.00,,---,0.00,VWS V14.01,2013-07-03 05:17:00,
2013-07-03 00:20:00,61.4,55.9,30.03,NNE,19,0.0,1.0,82,0.00,,---,0.00,VWS V14.01,2013-07-03 05:20:00,
2013-07-03 00:25:00,61.2,55.7,30.03,NNE,19,0.0,1.0,82,0.00,,---,0.00,VWS V14.01,2013-07-03 05:25:00,
2013-07-03 00:30:00,61.1,55.9,30.03,NNE,19,0.0,0.0,83,0.00,,---,0.00,VWS V14.01,2013-07-03 05:30:00,
2013-07-03 00:35:00,61.0,55.8,30.03,NNE,19,0.0,0.0,83,0.00,,---,0.00,VWS V14.01,2013-07-03 05:35:00,
2013-07-03 00:40:00,60.9,55.7,30.03,NNE,19,0.0,0.0,83,0.00,,---,0.00,VWS V14.01,2013-07-03 05:40:00,
2013-07-03 00:46:00,60.7,55.5,30.03,NNE,19,0.0,0.0,83,0.00,,---,0.00,VWS V14.01,2013-07-03 05:46:00,
2013-07-03 00:52:00,60.5,55.3,30.03,NNE,19,0.0,0.0,83,0.00,,---,0.00,VWS V14.01,2013-07-03 05:52:00,
2013-07-03 00:54:00,60.5,55.7,30.03,NNE,19,0.0,0.0,84,0.00,,---,0.00,VWS V14.01,2013-07-03 05:54:00,
2013-07-03 00:57:00,60.4,55.5,30.03,NNE,19,0.0,0.0,84,0.00,,---,0.00,VWS V14.01,2013-07-03 05:57:00,
2013-07-03 00:59:00,60.4,55.5,30.03,NNE,19,0.0,0.0,84,0.00,,---,0.00,VWS V14.01,2013-07-03 05:59:00,
2013-07-03 01:00:00,60.4,55.5,30.03,NNE,19,0.0,0.0,84,0.00,,---,0.00,VWS V14.01,2013-07-03 06:00:00,
2013-07-03 01:03:00,60.2,55.3,30.03,NNE,19,0.0,1.0,84,0.00,,---,0.00,VWS V14.01,2013-07-03 06:03:00,
2013-07-03 01:09:00,60.2,55.3,30.03,NNE,19,0.0,1.0,84,0.00,,---,0.00,VWS V14.01,2013-07-03 06:09:00,
2013-07-03 01:13:00,60.0,55.5,30.02,North,355,2.0,3.0,85,0.00,,---,0.00,VWS V14.01,2013-07-03 06:13:00,
2013-07-03 01:16:00,59.9,55.7,30.02,North,355,2.0,3.0,86,0.00,,---,0.00,VWS V14.01,2013-07-03 06:16:00,
2013-07-03 01:17:00,59.9,55.7,30.03,North,355,2.0,3.0,86,0.00,,---,0.00,VWS V14.01,2013-07-03 06:17:00,
2013-07-03 01:22:00,59.6,55.7,30.03,NNW,337,2.0,3.0,87,0.00,,---,0.00,VWS V14.01,2013-07-03 06:22:00,
2013-07-03 01:24:00,59.6,55.7,30.03,NNW,335,3.0,3.0,87,0.00,,---,0.00,VWS V14.01,2013-07-03 06:24:00,
2013-07-03 01:26:00,59.5,55.6,30.02,NNW,333,2.0,3.0,87,0.00,,---,0.00,VWS V14.01,2013-07-03 06:26:00,
2013-07-03 01:30:00,59.4,55.5,30.02,NNW,329,3.0,4.0,87,0.00,,---,0.00,VWS V14.01,2013-07-03 06:30:00,
2013-07-03 01:32:00,59.3,55.4,30.02,NW,325,3.0,4.0,87,0.00,,---,0.00,VWS V14.01,2013-07-03 06:32:00,
2013-07-03 01:37:00,59.2,55.3,30.02,NW,325,2.0,5.0,87,0.00,,---,0.00,VWS V14.01,2013-07-03 06:37:00,
2013-07-03 01:42:00,59.1,55.5,30.02,NW,325,0.0,5.0,88,0.00,,---,0.00,VWS V14.01,2013-07-03 06:42:00,
2013-07-03 01:43:00,59.0,55.1,30.02,NW,325,0.0,5.0,87,0.00,,---,0.00,VWS V14.01,2013-07-03 06:43:00,
2013-07-03 01:48:00,58.9,55.0,30.02,NW,325,0.0,5.0,87,0.00,,---,0.00,VWS V14.01,2013-07-03 06:48:00,
2013-07-03 01:53:00,58.9,55.0,30.02,NW,325,0.0,5.0,87,0.00,,---,0.00,VWS V14.01,2013-07-03 06:53:00,
2013-07-03 01:55:00,58.8,55.0,30.02,NW,325,0.0,5.0,87,0.00,,---,0.00,VWS V14.01,2013-07-03 06:55:00,
2013-07-03 02:00:00,58.8,55.0,30.02,NW,325,0.0,0.0,87,0.00,,---,0.00,VWS V14.01,2013-07-03 07:00:00,
2013-07-03 02:06:00,58.9,55.0,30.02,NW,325,0.0,0.0,87,0.00,,---,0.00,VWS V14.01,2013-07-03 07:06:00,
2013-07-03 02:11:00,59.0,55.1,30.02,NW,325,0.0,0.0,87,0.00,,---,0.00,VWS V14.01,2013-07-03 07:11:00,
2013-07-03 02:16:00,59.0,55.1,30.02,NW,325,0.0,0.0,87,0.00,,---,0.00,VWS V14.01,2013-07-03 07:16:00,
2013-07-03 02:17:00,59.0,55.1,30.02,NW,325,0.0,0.0,87,0.00,,---,0.00,VWS V14.01,2013-07-03 07:17:00,
2013-07-03 02:22:00,59.0,55.1,30.02,NW,325,0.0,0.0,87,0.00,,---,0.00,VWS V14.01,2013-07-03 07:22:00,
2013-07-03 02:27:00,58.9,55.4,30.02,NW,325,0.0,0.0,88,0.00,,---,0.00,VWS V14.01,2013-07-03 07:27:00,
2013-07-03 02:30:00,58.9,55.4,30.02,NW,325,0.0,0.0,88,0.00,,---,0.00,VWS V14.01,2013-07-03 07:30:00,
2013-07-03 02:32:00,58.9,55.4,30.02,NW,325,0.0,0.0,88,0.00,,---,0.00,VWS V14.01,2013-07-03 07:32:00,
2013-07-03 02:38:00,58.9,55.4,30.02,NW,326,0.0,0.0,88,0.00,,---,0.00,VWS V14.01,2013-07-03 07:38:00,
2013-07-03 02:40:00,58.9,55.4,30.02,NW,326,0.0,0.0,88,0.00,,---,0.00,VWS V14.01,2013-07-03 07:40:00,
2013-07-03 02:45:00,58.9,55.4,30.02,NNW,335,0.0,0.0,88,0.00,,---,0.00,VWS V14.01,2013-07-03 07:45:00,
2013-07-03 02:50:00,58.9,55.4,30.02,NNW,335,0.0,0.0,88,0.00,,---,0.00,VWS V14.01,2013-07-03 07:50:00,
2013-07-03 02:52:00,58.9,55.4,30.01,NNW,335,0.0,0.0,88,0.00,,---,0.00,VWS V14.01,2013-07-03 07:52:00,
2013-07-03 02:57:00,58.9,55.4,30.01,NNW,348,0.0,0.0,88,0.00,,---,0.00,VWS V14.01,2013-07-03 07:57:00,
2013-07-03 03:00:00,58.9,55.4,30.01,NNW,348,0.0,0.0,88,0.00,,---,0.00,VWS V14.01,2013-07-03 08:00:00,
2013-07-03 03:01:00,58.9,55.7,30.01,North,349,0.0,0.0,89,0.00,,---,0.00,VWS V14.01,2013-07-03 08:01:00,
2013-07-03 03:06:00,58.9,55.7,30.01,North,349,0.0,0.0,89,0.00,,---,0.00,VWS V14.01,2013-07-03 08:06:00,
2013-07-03 03:09:00,58.9,55.7,30.01,North,349,0.0,0.0,89,0.00,,---,0.00,VWS V14.01,2013-07-03 08:09:00,
2013-07-03 03:14:00,58.9,55.7,30.01,North,349,0.0,0.0,89,0.00,,---,0.00,VWS V14.01,2013-07-03 08:14:00,
2013-07-03 03:19:00,58.9,55.7,30.01,North,349,0.0,0.0,89,0.00,,---,0.00,VWS V14.01,2013-07-03 08:19:00,
2013-07-03 03:21:00,58.9,55.7,30.01,North,349,0.0,0.0,89,0.00,,---,0.00,VWS V14.01,2013-07-03 08:21:00,
2013-07-03 03:26:00,58.9,55.7,30.01,North,349,0.0,0.0,89,0.00,,---,0.00,VWS V14.01,2013-07-03 08:26:00,
2013-07-03 03:30:00,58.9,55.4,30.02,NW,325,0.0,0.0,88,0.00,,---,0.00,VWS V14.01,2013-07-03 08:30:00,
2013-07-03 03:31:00,58.8,55.6,30.01,North,349,0.0,0.0,89,0.00,,---,0.00,VWS V14.01,2013-07-03 08:31:00,
2013-07-03 03:37:00,58.7,55.5,30.02,North,349,0.0,0.0,89,0.00,,---,0.00,VWS V14.01,2013-07-03 08:37:00,
2013-07-03 03:39:00,58.7,55.5,30.02,North,349,0.0,0.0,89,0.00,,---,0.00,VWS V14.01,2013-07-03 08:39:00,
2013-07-03 03:44:00,58.7,55.8,30.02,North,349,0.0,0.0,90,0.00,,---,0.00,VWS V14.01,2013-07-03 08:44:00,
2013-07-03 03:46:00,58.7,55.5,30.02,North,349,0.0,0.0,89,0.00,,---,0.00,VWS V14.01,2013-07-03 08:46:00,
2013-07-03 03:51:00,58.7,55.8,30.01,NW,325,0.0,0.0,90,0.00,,---,0.00,VWS V14.01,2013-07-03 08:51:00,
2013-07-03 03:54:00,58.6,55.7,30.01,NW,325,0.0,0.0,90,0.00,,---,0.00,VWS V14.01,2013-07-03 08:54:00,
2013-07-03 03:56:00,58.7,55.8,30.01,NW,325,0.0,0.0,90,0.00,,---,0.00,VWS V14.01,2013-07-03 08:56:00,
2013-07-03 04:00:00,58.6,55.7,30.01,NW,325,0.0,0.0,90,0.00,,---,0.00,VWS V14.01,2013-07-03 09:00:00,
2013-07-03 04:02:00,58.6,55.7,30.01,NW,325,0.0,0.0,90,0.00,,---,0.00,VWS V14.01,2013-07-03 09:02:00,
2013-07-03 04:07:00,58.6,55.7,30.02,NW,325,0.0,0.0,90,0.00,,---,0.00,VWS V14.01,2013-07-03 09:07:00,
2013-07-03 04:12:00,58.5,55.6,30.02,NW,325,0.0,0.0,90,0.00,,---,0.00,VWS V14.01,2013-07-03 09:12:00,
2013-07-03 04:17:00,58.4,55.5,30.02,NW,325,0.0,0.0,90,0.00,,---,0.00,VWS V14.01,2013-07-03 09:17:00,
2013-07-03 04:22:00,58.2,55.3,30.02,NW,325,0.0,0.0,90,0.00,,---,0.00,VWS V14.01,2013-07-03 09:22:00,
2013-07-03 04:27:00,58.2,55.6,30.02,NW,325,0.0,0.0,91,0.00,,---,0.00,VWS V14.01,2013-07-03 09:27:00,
2013-07-03 04:30:00,58.8,55.6,30.01,North,349,0.0,0.0,89,0.00,,---,0.00,VWS V14.01,2013-07-03 09:30:00,
2013-07-03 04:32:00,58.1,55.5,30.02,NW,325,0.0,0.0,91,0.00,,---,0.00,VWS V14.01,2013-07-03 09:32:00,
2013-07-03 04:38:00,58.0,55.4,30.02,NW,325,0.0,0.0,91,0.00,,---,0.00,VWS V14.01,2013-07-03 09:38:00,
2013-07-03 04:42:00,58.0,55.4,30.02,NW,325,0.0,0.0,91,0.00,,---,0.00,VWS V14.01,2013-07-03 09:42:00,
2013-07-03 04:47:00,57.9,55.3,30.02,NW,325,0.0,0.0,91,0.00,,---,0.00,VWS V14.01,2013-07-03 09:47:00,
2013-07-03 04:49:00,57.8,55.2,30.02,NW,325,0.0,0.0,91,0.00,,---,0.00,VWS V14.01,2013-07-03 09:49:00,
2013-07-03 04:50:00,57.8,55.2,30.02,NW,325,0.0,0.0,91,0.00,,---,0.00,VWS V14.01,2013-07-03 09:50:00,
2013-07-03 04:55:00,57.7,55.1,30.02,NW,325,2.0,3.0,91,0.00,,---,0.00,VWS V14.01,2013-07-03 09:55:00,
2013-07-03 05:00:00,57.6,55.3,30.02,NW,325,2.0,3.0,92,0.00,,---,0.00,VWS V14.01,2013-07-03 10:00:00,
2013-07-03 05:04:00,57.5,55.2,30.02,NW,324,0.0,3.0,92,0.00,,---,0.00,VWS V14.01,2013-07-03 10:04:00,
2013-07-03 05:06:00,57.4,55.1,30.02,NW,324,0.0,3.0,92,0.00,,---,0.00,VWS V14.01,2013-07-03 10:06:00,
2013-07-03 05:11:00,57.3,55.0,30.02,NW,324,0.0,3.0,92,0.00,,---,0.00,VWS V14.01,2013-07-03 10:11:00,
2013-07-03 05:16:00,57.2,54.9,30.03,NW,324,0.0,3.0,92,0.00,,---,0.00,VWS V14.01,2013-07-03 10:16:00,
2013-07-03 05:21:00,57.1,54.8,30.03,WNW,300,2.0,3.0,92,0.00,,---,0.00,VWS V14.01,2013-07-03 10:21:00,
2013-07-03 05:26:00,57.1,54.8,30.03,WNW,300,0.0,3.0,92,0.00,,---,0.00,VWS V14.01,2013-07-03 10:26:00,
2013-07-03 05:30:00,57.2,54.9,30.03,WNW,300,0.0,3.0,92,0.00,,---,0.00,VWS V14.01,2013-07-03 10:30:00,
2013-07-03 05:32:00,57.2,54.9,30.03,WNW,300,0.0,0.0,92,0.00,,---,0.00,VWS V14.01,2013-07-03 10:32:00,
2013-07-03 05:37:00,57.2,54.9,30.04,WNW,300,0.0,0.0,92,0.00,,---,0.00,VWS V14.01,2013-07-03 10:37:00,
2013-07-03 05:42:00,57.2,54.9,30.03,WNW,300,0.0,0.0,92,0.00,,---,0.00,VWS V14.01,2013-07-03 10:42:00,
2013-07-03 05:47:00,57.3,55.0,30.03,WNW,300,2.0,3.0,92,0.00,,---,0.00,VWS V14.01,2013-07-03 10:47:00,
2013-07-03 05:50:00,57.3,55.0,30.03,WNW,300,2.0,3.0,92,0.00,,---,0.00,VWS V14.01,2013-07-03 10:50:00,
2013-07-03 05:55:00,57.3,55.0,30.03,WNW,300,2.0,3.0,92,0.00,,---,0.00,VWS V14.01,2013-07-03 10:55:00,
2013-07-03 05:58:00,57.3,55.0,30.03,WNW,300,3.0,3.0,92,0.00,,---,0.00,VWS V14.01,2013-07-03 10:58:00,
2013-07-03 06:00:00,57.4,55.1,30.03,WNW,300,3.0,4.0,92,0.00,,---,0.00,VWS V14.01,2013-07-03 11:00:00,
2013-07-03 06:04:00,57.3,55.0,30.03,WNW,302,1.0,3.0,92,0.00,,---,0.00,VWS V14.01,2013-07-03 11:04:00,
2013-07-03 06:09:00,57.3,55.0,30.03,WNW,303,1.0,3.0,92,0.00,,---,0.00,VWS V14.01,2013-07-03 11:09:00,
2013-07-03 06:10:00,57.3,55.0,30.03,NW,304,2.0,3.0,92,0.00,,---,0.00,VWS V14.01,2013-07-03 11:10:00,
2013-07-03 06:15:00,57.3,55.0,30.03,NW,308,0.0,3.0,92,0.00,,---,0.00,VWS V14.01,2013-07-03 11:15:00,
2013-07-03 06:20:00,57.2,54.9,30.04,NW,308,2.0,3.0,92,0.00,,---,0.00,VWS V14.01,2013-07-03 11:20:00,
2013-07-03 06:23:00,57.2,54.9,30.03,NW,308,1.0,3.0,92,0.00,,---,0.00,VWS V14.01,2013-07-03 11:23:00,
2013-07-03 06:25:00,57.1,54.8,30.03,NW,308,2.0,3.0,92,0.00,,---,0.00,VWS V14.01,2013-07-03 11:25:00,
2013-07-03 06:30:00,57.0,54.7,30.03,NW,308,0.0,0.0,92,0.00,,---,0.00,VWS V14.01,2013-07-03 11:30:00,
2013-07-03 06:36:00,57.0,55.0,30.03,NW,308,1.0,1.0,93,0.00,,---,0.00,VWS V14.01,2013-07-03 11:36:00,
2013-07-03 06:41:00,56.9,54.9,30.04,NW,308,0.0,2.0,93,0.00,,---,0.00,VWS V14.01,2013-07-03 11:41:00,
2013-07-03 06:45:00,56.9,54.9,30.04,NW,308,0.0,2.0,93,0.00,,---,0.00,VWS V14.01,2013-07-03 11:45:00,
2013-07-03 06:50:00,56.9,54.9,30.04,NW,308,0.0,2.0,93,0.00,,---,0.00,VWS V14.01,2013-07-03 11:50:00,
2013-07-03 06:56:00,57.0,55.0,30.04,NW,308,0.0,2.0,93,0.00,,---,0.00,VWS V14.01,2013-07-03 11:56:00,
2013-07-03 07:00:00,57.1,55.1,30.04,NW,308,0.0,0.0,93,0.00,,---,0.00,VWS V14.01,2013-07-03 12:00:00,
2013-07-03 07:05:00,57.3,55.3,30.04,NW,308,0.0,0.0,93,0.00,,---,0.00,VWS V14.01,2013-07-03 12:05:00,
2013-07-03 07:11:00,57.7,55.7,30.04,NW,308,0.0,0.0,93,0.00,,---,0.00,VWS V14.01,2013-07-03 12:11:00,
2013-07-03 07:12:00,57.8,55.8,30.05,NW,308,0.0,0.0,93,0.00,,---,0.00,VWS V14.01,2013-07-03 12:12:00,
2013-07-03 07:16:00,58.1,56.1,30.05,NW,308,0.0,2.0,93,0.00,,---,0.00,VWS V14.01,2013-07-03 12:16:00,
2013-07-03 07:20:00,58.3,56.0,30.05,NW,308,0.0,2.0,92,0.00,,---,0.00,VWS V14.01,2013-07-03 12:20:00,
2013-07-03 07:25:00,58.8,56.5,30.05,NW,308,0.0,2.0,92,0.00,,---,0.00,VWS V14.01,2013-07-03 12:25:00,
2013-07-03 07:30:00,59.5,56.9,30.05,NW,308,2.0,3.0,91,0.00,,---,0.00,VWS V14.01,2013-07-03 12:30:00,
2013-07-03 07:35:00,60.4,57.5,30.05,NW,314,4.0,5.0,90,0.00,,---,0.00,VWS V14.01,2013-07-03 12:35:00,
2013-07-03 07:40:00,60.9,57.3,30.05,NNW,336,3.0,5.0,88,0.00,,---,0.00,VWS V14.01,2013-07-03 12:40:00,
2013-07-03 07:45:00,61.7,57.5,30.05,NNW,336,0.0,5.0,86,0.00,,---,0.00,VWS V14.01,2013-07-03 12:45:00,
2013-07-03 07:47:00,62.0,58.1,30.05,NNW,336,0.0,5.0,87,0.00,,---,0.00,VWS V14.01,2013-07-03 12:47:00,
2013-07-03 07:52:00,62.9,58.0,30.05,NNW,344,0.0,5.0,84,0.00,,---,0.00,VWS V14.01,2013-07-03 12:52:00,
2013-07-03 07:57:00,63.8,58.2,30.06,NE,42,0.0,5.0,82,0.00,,---,0.00,VWS V14.01,2013-07-03 12:57:00,
2013-07-03 08:00:00,63.8,58.2,30.06,NE,42,0.0,5.0,82,0.00,,---,0.00,VWS V14.01,2013-07-03 13:00:00,
2013-07-03 08:03:00,64.0,58.1,30.06,NE,46,3.0,3.0,81,0.00,,---,0.00,VWS V14.01,2013-07-03 13:03:00,
2013-07-03 08:08:00,63.8,57.9,30.06,NNE,30,1.0,5.0,81,0.00,,---,0.00,VWS V14.01,2013-07-03 13:08:00,
2013-07-03 08:14:00,64.0,58.1,30.05,NE,35,5.0,6.0,81,0.00,,---,0.00,VWS V14.01,2013-07-03 13:14:00,
2013-07-03 08:19:00,63.9,57.6,30.05,NNE,13,3.0,7.0,80,0.00,,---,0.00,VWS V14.01,2013-07-03 13:19:00,
2013-07-03 08:24:00,64.0,58.1,30.06,NNE,29,4.0,7.0,81,0.00,,---,0.00,VWS V14.01,2013-07-03 13:24:00,
2013-07-03 08:25:00,64.0,57.7,30.06,NE,34,5.0,7.0,80,0.00,,---,0.00,VWS V14.01,2013-07-03 13:25:00,
2013-07-03 08:26:00,64.0,57.7,30.06,ENE,59,3.0,7.0,80,0.00,,---,0.00,VWS V14.01,2013-07-03 13:26:00,
2013-07-03 08:30:00,64.1,58.5,30.06,ENE,57,0.0,7.0,82,0.00,,---,0.00,VWS V14.01,2013-07-03 13:30:00,
2013-07-03 08:31:00,64.0,57.7,30.06,NE,46,3.0,7.0,80,0.00,,---,0.00,VWS V14.01,2013-07-03 13:31:00,
2013-07-03 08:36:00,64.1,57.5,30.06,NNE,24,5.0,7.0,79,0.00,,---,0.00,VWS V14.01,2013-07-03 13:36:00,
2013-07-03 08:38:00,64.2,57.2,30.06,NNE,22,2.0,7.0,78,0.00,,---,0.00,VWS V14.01,2013-07-03 13:38:00,
2013-07-03 08:44:00,64.3,57.7,30.06,ENE,67,0.0,7.0,79,0.00,,---,0.00,VWS V14.01,2013-07-03 13:44:00,
2013-07-03 08:49:00,64.5,57.1,30.06,North,5,2.0,7.0,77,0.00,,---,0.00,VWS V14.01,2013-07-03 13:49:00,
2013-07-03 08:54:00,64.8,57.8,30.06,North,5,4.0,7.0,78,0.00,,---,0.00,VWS V14.01,2013-07-03 13:54:00,
2013-07-03 08:59:00,65.5,58.1,30.06,North,10,0.0,4.0,77,0.00,,---,0.00,VWS V14.01,2013-07-03 13:59:00,
2013-07-03 09:00:00,65.3,58.3,30.06,North,5,2.0,7.0,78,0.00,,---,0.00,VWS V14.01,2013-07-03 14:00:00,
2013-07-03 09:04:00,65.8,58.0,30.06,NNE,22,2.0,5.0,76,0.00,,---,0.00,VWS V14.01,2013-07-03 14:04:00,
2013-07-03 09:06:00,65.8,57.7,30.06,NNE,22,0.0,5.0,75,0.00,,---,0.00,VWS V14.01,2013-07-03 14:06:00,
2013-07-03 09:09:00,65.9,58.1,30.06,NE,34,2.0,5.0,76,0.00,,---,0.00,VWS V14.01,2013-07-03 14:09:00,
2013-07-03 09:14:00,65.9,58.5,30.06,NE,52,1.0,5.0,77,0.00,,---,0.00,VWS V14.01,2013-07-03 14:14:00,
2013-07-03 09:18:00,65.9,58.1,30.06,NE,50,0.0,5.0,76,0.00,,---,0.00,VWS V14.01,2013-07-03 14:18:00,
2013-07-03 09:23:00,66.6,59.5,30.06,North,355,3.0,5.0,78,0.00,,---,0.00,VWS V14.01,2013-07-03 14:23:00,
2013-07-03 09:28:00,67.1,58.9,30.06,NNW,339,0.0,0.0,75,0.00,,---,0.00,VWS V14.01,2013-07-03 14:28:00,
2013-07-03 09:30:00,67.3,59.5,30.06,North,355,0.0,0.0,76,0.00,,---,0.00,VWS V14.01,2013-07-03 14:30:00,
2013-07-03 09:35:00,67.8,59.2,30.06,NE,43,1.0,2.0,74,0.00,,---,0.00,VWS V14.01,2013-07-03 14:35:00,
2013-07-03 09:38:00,67.7,58.7,30.06,ENE,78,0.0,4.0,73,0.00,,---,0.00,VWS V14.01,2013-07-03 14:38:00,
2013-07-03 09:41:00,67.6,58.7,30.06,NNW,342,4.0,4.0,73,0.00,,---,0.00,VWS V14.01,2013-07-03 14:41:00,
2013-07-03 09:46:00,67.9,59.3,30.06,NW,320,1.0,7.0,74,0.00,,---,0.00,VWS V14.01,2013-07-03 14:46:00,
2013-07-03 09:52:00,68.2,59.6,30.06,NW,325,3.0,7.0,74,0.00,,---,0.00,VWS V14.01,2013-07-03 14:52:00,
2013-07-03 09:57:00,68.3,58.5,30.06,NW,313,0.0,0.0,71,0.00,,---,0.00,VWS V14.01,2013-07-03 14:57:00,
2013-07-03 09:59:00,68.4,59.4,30.06,NE,48,0.0,1.0,73,0.00,,---,0.00,VWS V14.01,2013-07-03 14:59:00,
2013-07-03 10:00:00,68.3,58.5,30.06,NW,313,0.0,7.0,71,0.00,,---,0.00,VWS V14.01,2013-07-03 15:00:00,
2013-07-03 10:03:00,68.7,58.5,30.06,NW,306,4.0,5.0,70,0.00,,---,0.00,VWS V14.01,2013-07-03 15:03:00,
2013-07-03 10:04:00,68.8,58.6,30.06,NNW,330,2.0,5.0,70,0.00,,---,0.00,VWS V14.01,2013-07-03 15:04:00,
2013-07-03 10:09:00,69.1,59.3,30.06,NW,315,0.0,5.0,71,0.00,,---,0.00,VWS V14.01,2013-07-03 15:09:00,
2013-07-03 10:14:00,69.2,57.4,30.06,NNW,336,7.0,8.0,66,0.00,,---,0.00,VWS V14.01,2013-07-03 15:14:00,
2013-07-03 10:15:00,69.2,57.8,30.07,NW,318,3.0,8.0,67,0.00,,---,0.00,VWS V14.01,2013-07-03 15:15:00,
2013-07-03 10:20:00,69.3,58.3,30.07,WNW,302,7.0,8.0,68,0.00,,---,0.00,VWS V14.01,2013-07-03 15:20:00,
2013-07-03 10:26:00,69.2,57.4,30.06,WNW,282,3.0,8.0,66,0.00,,---,0.00,VWS V14.01,2013-07-03 15:26:00,
2013-07-03 10:28:00,69.3,58.3,30.06,NW,321,3.0,7.0,68,0.00,,---,0.00,VWS V14.01,2013-07-03 15:28:00,
2013-07-03 10:30:00,69.3,58.3,30.07,NW,319,4.0,8.0,68,0.00,,---,0.00,VWS V14.01,2013-07-03 15:30:00,
2013-07-03 10:34:00,69.6,58.6,30.06,NW,317,5.0,8.0,68,0.00,,---,0.00,VWS V14.01,2013-07-03 15:34:00,
2013-07-03 10:39:00,69.6,59.4,30.06,North,350,2.0,8.0,70,0.00,,---,0.00,VWS V14.01,2013-07-03 15:39:00,
2013-07-03 10:41:00,69.8,58.8,30.07,North,350,2.0,8.0,68,0.00,,---,0.00,VWS V14.01,2013-07-03 15:41:00,
2013-07-03 10:46:00,70.6,57.0,30.06,North,10,2.0,10.0,62,0.00,,---,0.00,VWS V14.01,2013-07-03 15:46:00,
2013-07-03 10:51:00,71.0,56.9,30.06,NNW,335,4.0,10.0,61,0.00,,---,0.00,VWS V14.01,2013-07-03 15:51:00,
2013-07-03 10:52:00,71.0,55.0,30.06,NW,317,0.0,10.0,57,0.00,,---,0.00,VWS V14.01,2013-07-03 15:52:00,
2013-07-03 10:53:00,70.9,55.9,30.06,WNW,295,8.0,10.0,59,0.00,,---,0.00,VWS V14.01,2013-07-03 15:53:00,
2013-07-03 10:58:00,70.3,55.8,30.06,NNW,332,5.0,8.0,60,0.00,,---,0.00,VWS V14.01,2013-07-03 15:58:00,
2013-07-03 11:00:00,70.5,56.0,30.06,NW,313,2.0,10.0,60,0.00,,---,0.00,VWS V14.01,2013-07-03 16:00:00,
2013-07-03 11:04:00,70.6,55.6,30.06,NNW,328,6.0,9.0,59,0.00,,---,0.00,VWS V14.01,2013-07-03 16:04:00,
2013-07-03 11:09:00,70.8,57.6,30.06,NNW,332,2.0,9.0,63,0.00,,---,0.00,VWS V14.01,2013-07-03 16:09:00,
2013-07-03 11:15:00,70.6,56.5,30.06,NNW,327,6.0,9.0,61,0.00,,---,0.00,VWS V14.01,2013-07-03 16:15:00,
2013-07-03 11:20:00,70.4,54.9,30.06,NNW,339,4.0,9.0,58,0.00,,---,0.00,VWS V14.01,2013-07-03 16:20:00,
2013-07-03 11:25:00,70.6,56.5,30.06,WNW,296,0.0,9.0,61,0.00,,---,0.00,VWS V14.01,2013-07-03 16:25:00,
2013-07-03 11:30:00,71.1,57.0,30.06,North,349,2.0,7.0,61,0.00,,---,0.00,VWS V14.01,2013-07-03 16:30:00,
2013-07-03 11:35:00,71.1,55.1,30.06,WNW,282,7.0,9.0,57,0.00,,---,0.00,VWS V14.01,2013-07-03 16:35:00,
2013-07-03 11:40:00,71.2,57.1,30.06,NNW,338,2.0,12.0,61,0.00,,---,0.00,VWS V14.01,2013-07-03 16:40:00,
2013-07-03 11:45:00,71.6,57.0,30.06,NNW,338,1.0,12.0,60,0.00,,---,0.00,VWS V14.01,2013-07-03 16:45:00,
2013-07-03 11:51:00,72.2,58.0,30.06,NNE,12,1.0,12.0,61,0.00,,---,0.00,VWS V14.01,2013-07-03 16:51:00,
2013-07-03 11:57:00,72.6,56.0,30.06,WNW,294,6.0,12.0,56,0.00,,---,0.00,VWS V14.01,2013-07-03 16:57:00,
2013-07-03 12:00:00,72.6,56.0,30.06,WNW,287,6.0,12.0,56,0.00,,---,0.00,VWS V14.01,2013-07-03 17:00:00,
2013-07-03 12:02:00,72.3,57.2,30.06,West,267,9.0,11.0,59,0.00,,---,0.00,VWS V14.01,2013-07-03 17:02:00,
2013-07-03 12:07:00,72.1,56.5,30.06,West,281,2.0,11.0,58,0.00,,---,0.00,VWS V14.01,2013-07-03 17:07:00,
2013-07-03 12:12:00,72.2,56.6,30.05,NNW,348,6.0,11.0,58,0.00,,---,0.00,VWS V14.01,2013-07-03 17:12:00,
2013-07-03 12:18:00,72.7,55.6,30.06,ESE,121,1.0,11.0,55,0.00,,---,0.00,VWS V14.01,2013-07-03 17:18:00,
2013-07-03 12:23:00,72.9,55.8,30.06,NNE,19,5.0,11.0,55,0.00,,---,0.00,VWS V14.01,2013-07-03 17:23:00,
2013-07-03 12:28:00,73.3,56.2,30.06,NNW,338,10.0,10.0,55,0.00,,---,0.00,VWS V14.01,2013-07-03 17:28:00,
2013-07-03 12:30:00,73.2,56.1,30.06,NNE,17,2.0,11.0,55,0.00,,---,0.00,VWS V14.01,2013-07-03 17:30:00,
2013-07-03 12:33:00,73.5,55.3,30.05,WNW,296,1.0,10.0,53,0.00,,---,0.00,VWS V14.01,2013-07-03 17:33:00,
2013-07-03 12:38:00,73.7,55.0,30.05,NNE,28,4.0,10.0,52,0.00,,---,0.00,VWS V14.01,2013-07-03 17:38:00,
2013-07-03 12:43:00,73.9,56.7,30.05,NW,315,9.0,10.0,55,0.00,,---,0.00,VWS V14.01,2013-07-03 17:43:00,
2013-07-03 12:48:00,73.5,55.9,30.05,NNW,335,9.0,11.0,54,0.00,,---,0.00,VWS V14.01,2013-07-03 17:48:00,
2013-07-03 12:53:00,73.7,56.0,30.05,NNW,333,12.0,13.0,54,0.00,,---,0.00,VWS V14.01,2013-07-03 17:53:00,
2013-07-03 12:59:00,73.7,55.0,30.05,NNW,328,7.0,8.0,52,0.00,,---,0.00,VWS V14.01,2013-07-03 17:59:00,
2013-07-03 13:00:00,73.7,54.5,30.05,WNW,302,6.0,13.0,51,0.00,,---,0.00,VWS V14.01,2013-07-03 18:00:00,
2013-07-03 13:04:00,73.6,54.4,30.04,NNE,23,0.0,8.0,51,0.00,,---,0.00,VWS V14.01,2013-07-03 18:04:00,
2013-07-03 13:09:00,73.9,54.7,30.04,NW,315,6.0,9.0,51,0.00,,---,0.00,VWS V14.01,2013-07-03 18:09:00,
2013-07-03 13:14:00,74.2,55.5,30.05,WNW,287,7.0,10.0,52,0.00,,---,0.00,VWS V14.01,2013-07-03 18:14:00,
2013-07-03 13:19:00,74.1,53.7,30.04,NNW,348,7.0,12.0,49,0.00,,---,0.00,VWS V14.01,2013-07-03 18:19:00,
2013-07-03 13:24:00,74.0,53.7,30.04,West,275,0.0,12.0,49,0.00,,---,0.00,VWS V14.01,2013-07-03 18:24:00,
2013-07-03 13:30:00,74.1,55.4,30.04,NW,313,0.0,2.0,52,0.00,,---,0.00,VWS V14.01,2013-07-03 18:30:00,
2013-07-03 13:35:00,74.3,52.2,30.04,WNW,298,5.0,8.0,46,0.00,,---,0.00,VWS V14.01,2013-07-03 18:35:00,
2013-07-03 13:40:00,74.4,55.7,30.04,NW,323,2.0,8.0,52,0.00,,---,0.00,VWS V14.01,2013-07-03 18:40:00,
2013-07-03 13:45:00,74.5,54.7,30.04,WSW,258,4.0,8.0,50,0.00,,---,0.00,VWS V14.01,2013-07-03 18:45:00,
2013-07-03 13:50:00,74.4,54.0,30.04,NW,326,0.0,8.0,49,0.00,,---,0.00,VWS V14.01,2013-07-03 18:50:00,
2013-07-03 13:55:00,74.8,57.1,30.04,West,277,7.0,8.0,54,0.00,,---,0.00,VWS V14.01,2013-07-03 18:55:00,
2013-07-03 14:00:00,74.8,53.2,30.04,WSW,247,5.0,9.0,47,0.00,,---,0.00,VWS V14.01,2013-07-03 19:00:00,
2013-07-03 14:06:00,75.0,55.7,30.04,SW,220,0.0,9.0,51,0.00,,---,0.00,VWS V14.01,2013-07-03 19:06:00,
2013-07-03 14:11:00,75.2,53.0,30.04,NW,311,4.0,9.0,46,0.00,,---,0.00,VWS V14.01,2013-07-03 19:11:00,
2013-07-03 14:16:00,75.0,52.2,30.04,West,278,0.0,9.0,45,0.00,,---,0.00,VWS V14.01,2013-07-03 19:16:00,
2013-07-03 14:21:00,75.2,54.2,30.04,WNW,301,1.0,9.0,48,0.00,,---,0.00,VWS V14.01,2013-07-03 19:21:00,
2013-07-03 14:26:00,75.5,53.3,30.04,West,265,3.0,9.0,46,0.00,,---,0.00,VWS V14.01,2013-07-03 19:26:00,
2013-07-03 14:30:00,75.6,56.8,30.04,NNW,332,4.0,9.0,52,0.00,,---,0.00,VWS V14.01,2013-07-03 19:30:00,
2013-07-03 14:31:00,76.0,54.3,30.04,North,5,0.0,4.0,47,0.00,,---,0.00,VWS V14.01,2013-07-03 19:31:00,
2013-07-03 14:36:00,75.9,56.0,30.04,NNW,331,3.0,6.0,50,0.00,,---,0.00,VWS V14.01,2013-07-03 19:36:00,
2013-07-03 14:42:00,76.1,54.4,30.03,NE,55,1.0,8.0,47,0.00,,---,0.00,VWS V14.01,2013-07-03 19:42:00,
2013-07-03 14:47:00,75.9,56.0,30.04,NW,323,5.0,8.0,50,0.00,,---,0.00,VWS V14.01,2013-07-03 19:47:00,
2013-07-03 14:52:00,76.1,55.0,30.03,NW,317,7.0,8.0,48,0.00,,---,0.00,VWS V14.01,2013-07-03 19:52:00,
2013-07-03 14:57:00,76.1,53.2,30.03,West,276,7.0,8.0,45,0.00,,---,0.00,VWS V14.01,2013-07-03 19:57:00,
2013-07-03 15:00:00,76.1,53.2,30.03,WNW,283,3.0,8.0,45,0.00,,---,0.00,VWS V14.01,2013-07-03 20:00:00,
2013-07-03 15:03:00,76.0,54.9,30.03,WSW,242,2.0,8.0,48,0.00,,---,0.00,VWS V14.01,2013-07-03 20:03:00,
2013-07-03 15:08:00,76.2,55.1,30.03,South,183,0.0,8.0,48,0.00,,---,0.00,VWS V14.01,2013-07-03 20:08:00,
2013-07-03 15:13:00,76.4,54.1,30.03,SSW,198,0.0,8.0,46,0.00,,---,0.00,VWS V14.01,2013-07-03 20:13:00,
2013-07-03 15:18:00,76.7,55.0,30.03,NNW,331,0.0,8.0,47,0.00,,---,0.00,VWS V14.01,2013-07-03 20:18:00,
2013-07-03 15:23:00,77.4,55.0,30.02,NNW,331,0.0,8.0,46,0.00,,---,0.00,VWS V14.01,2013-07-03 20:23:00,
2013-07-03 15:28:00,77.5,53.9,30.02,SE,126,0.0,2.0,44,0.00,,---,0.00,VWS V14.01,2013-07-03 20:28:00,
2013-07-03 15:30:00,77.6,54.6,30.02,ESE,106,2.0,8.0,45,0.00,,---,0.00,VWS V14.01,2013-07-03 20:30:00,
2013-07-03 15:33:00,77.3,54.9,30.02,SW,227,0.0,2.0,46,0.00,,---,0.00,VWS V14.01,2013-07-03 20:33:00,
2013-07-03 15:38:00,77.5,55.1,30.02,West,261,3.0,4.0,46,0.00,,---,0.00,VWS V14.01,2013-07-03 20:38:00,
2013-07-03 15:44:00,77.3,54.3,30.02,NNW,336,2.0,9.0,45,0.00,,---,0.00,VWS V14.01,2013-07-03 20:44:00,
2013-07-03 15:49:00,77.0,53.4,30.02,West,264,4.0,11.0,44,0.00,,---,0.00,VWS V14.01,2013-07-03 20:49:00,
2013-07-03 15:54:00,77.0,53.4,30.02,North,350,2.0,11.0,44,0.00,,---,0.00,VWS V14.01,2013-07-03 20:54:00,
2013-07-03 15:59:00,77.4,53.2,30.02,NNW,329,0.0,2.0,43,0.00,,---,0.00,VWS V14.01,2013-07-03 20:59:00,
2013-07-03 16:00:00,77.3,53.7,30.02,NNW,329,1.0,11.0,44,0.00,,---,0.00,VWS V14.01,2013-07-03 21:00:00,
2013-07-03 16:04:00,77.9,55.5,30.02,NNW,336,2.0,5.0,46,0.00,,---,0.00,VWS V14.01,2013-07-03 21:04:00,
2013-07-03 16:09:00,77.8,52.9,30.02,West,281,0.0,5.0,42,0.00,,---,0.00,VWS V14.01,2013-07-03 21:09:00,
2013-07-03 16:14:00,77.9,53.6,30.02,West,279,0.0,5.0,43,0.00,,---,0.00,VWS V14.01,2013-07-03 21:14:00,
2013-07-03 16:19:00,78.2,55.1,30.02,NNW,334,1.0,5.0,45,0.00,,---,0.00,VWS V14.01,2013-07-03 21:19:00,
2013-07-03 16:25:00,78.2,56.3,30.01,NW,314,1.0,6.0,47,0.00,,---,0.00,VWS V14.01,2013-07-03 21:25:00,
2013-07-03 16:30:00,78.2,53.9,30.02,West,281,8.0,9.0,43,0.00,,---,0.00,VWS V14.01,2013-07-03 21:30:00,
2013-07-03 16:35:00,77.8,54.8,30.02,WSW,253,1.0,9.0,45,0.00,,---,0.00,VWS V14.01,2013-07-03 21:35:00,
2013-07-03 16:40:00,77.7,54.7,30.02,SW,228,0.0,9.0,45,0.00,,---,0.00,VWS V14.01,2013-07-03 21:40:00,
2013-07-03 16:46:00,78.1,54.4,30.02,WNW,296,5.0,9.0,44,0.00,,---,0.00,VWS V14.01,2013-07-03 21:46:00,
2013-07-03 16:52:00,78.0,53.1,30.02,WNW,291,0.0,9.0,42,0.00,,---,0.00,VWS V14.01,2013-07-03 21:52:00,
2013-07-03 16:57:00,78.2,53.9,30.02,West,281,2.0,9.0,43,0.00,,---,0.00,VWS V14.01,2013-07-03 21:57:00,
2013-07-03 17:00:00,78.2,53.2,30.02,WNW,298,2.0,9.0,42,0.00,,---,0.00,VWS V14.01,2013-07-03 22:00:00,
2013-07-03 17:02:00,77.9,53.6,30.02,WSW,239,6.0,9.0,43,0.00,,---,0.00,VWS V14.01,2013-07-03 22:02:00,
2013-07-03 17:07:00,78.0,55.0,30.01,WSW,250,4.0,9.0,45,0.00,,---,0.00,VWS V14.01,2013-07-03 22:07:00,
2013-07-03 17:12:00,78.2,57.5,30.01,West,263,7.0,9.0,49,0.00,,---,0.00,VWS V14.01,2013-07-03 22:12:00,
2013-07-03 17:17:00,77.9,53.6,30.01,WNW,290,4.0,9.0,43,0.00,,---,0.00,VWS V14.01,2013-07-03 22:17:00,
2013-07-03 17:22:00,77.7,54.1,30.01,WNW,288,4.0,9.0,44,0.00,,---,0.00,VWS V14.01,2013-07-03 22:22:00,
2013-07-03 17:28:00,77.6,54.6,30.01,West,260,5.0,9.0,45,0.00,,---,0.00,VWS V14.01,2013-07-03 22:28:00,
2013-07-03 17:30:00,77.6,55.8,30.01,WSW,252,9.0,9.0,47,0.00,,---,0.00,VWS V14.01,2013-07-03 22:30:00,
2013-07-03 17:34:00,77.7,54.7,30.01,West,267,2.0,9.0,45,0.00,,---,0.00,VWS V14.01,2013-07-03 22:34:00,
2013-07-03 17:39:00,77.9,55.5,30.01,West,281,0.0,9.0,46,0.00,,---,0.00,VWS V14.01,2013-07-03 22:39:00,
2013-07-03 17:44:00,78.0,54.3,30.01,WSW,244,7.0,10.0,44,0.00,,---,0.00,VWS V14.01,2013-07-03 22:44:00,
2013-07-03 17:49:00,77.6,54.6,30.00,West,267,2.0,10.0,45,0.00,,---,0.00,VWS V14.01,2013-07-03 22:49:00,
2013-07-03 17:54:00,77.6,56.4,30.00,WSW,242,2.0,10.0,48,0.00,,---,0.00,VWS V14.01,2013-07-03 22:54:00,
2013-07-03 18:00:00,77.6,55.2,30.01,West,272,6.0,8.0,46,0.00,,---,0.00,VWS V14.01,2013-07-03 23:00:00,
2013-07-03 18:06:00,77.5,56.3,30.00,WSW,251,9.0,11.0,48,0.00,,---,0.00,VWS V14.01,2013-07-03 23:06:00,
2013-07-03 18:11:00,77.2,54.8,30.00,WSW,248,5.0,11.0,46,0.00,,---,0.00,VWS V14.01,2013-07-03 23:11:00,
2013-07-03 18:16:00,77.2,57.1,30.00,WSW,238,2.0,11.0,50,0.00,,---,0.00,VWS V14.01,2013-07-03 23:16:00,
2013-07-03 18:21:00,77.5,56.9,30.00,West,261,2.0,11.0,49,0.00,,---,0.00,VWS V14.01,2013-07-03 23:21:00,
2013-07-03 18:26:00,77.6,57.5,30.00,West,261,4.0,11.0,50,0.00,,---,0.00,VWS V14.01,2013-07-03 23:26:00,
2013-07-03 18:30:00,77.5,56.9,30.00,WSW,253,6.0,11.0,49,0.00,,---,0.00,VWS V14.01,2013-07-03 23:30:00,
2013-07-03 18:31:00,77.5,58.0,30.00,WSW,240,5.0,7.0,51,0.00,,---,0.00,VWS V14.01,2013-07-03 23:31:00,
2013-07-03 18:37:00,77.3,56.1,30.00,SW,234,0.0,8.0,48,0.00,,---,0.00,VWS V14.01,2013-07-03 23:37:00,
2013-07-03 18:42:00,77.4,58.4,30.00,WSW,258,6.0,8.0,52,0.00,,---,0.00,VWS V14.01,2013-07-03 23:42:00,
2013-07-03 18:47:00,77.1,57.0,30.00,WSW,254,2.0,8.0,50,0.00,,---,0.00,VWS V14.01,2013-07-03 23:47:00,
2013-07-03 18:52:00,77.1,57.0,30.00,WSW,246,0.0,8.0,50,0.00,,---,0.00,VWS V14.01,2013-07-03 23:52:00,
2013-07-03 18:58:00,77.3,57.8,30.00,WSW,246,3.0,3.0,51,0.00,,---,0.00,VWS V14.01,2013-07-03 23:58:00,
2013-07-03 19:00:00,77.3,57.2,30.00,WSW,246,0.0,8.0,50,0.00,,---,0.00,VWS V14.01,2013-07-04 00:00:00,
2013-07-03 19:03:00,77.3,57.8,30.00,WSW,240,1.0,6.0,51,0.00,,---,0.00,VWS V14.01,2013-07-04 00:03:00,
2013-07-03 19:09:00,77.3,56.7,30.00,WSW,241,0.0,6.0,49,0.00,,---,0.00,VWS V14.01,2013-07-04 00:09:00,
2013-07-03 19:14:00,77.4,57.3,30.00,WSW,242,0.0,6.0,50,0.00,,---,0.00,VWS V14.01,2013-07-04 00:14:00,
2013-07-03 19:20:00,77.8,57.1,30.00,WSW,242,0.0,6.0,49,0.00,,---,0.00,VWS V14.01,2013-07-04 00:20:00,
2013-07-03 19:25:00,77.8,56.6,30.00,WSW,242,0.0,6.0,48,0.00,,---,0.00,VWS V14.01,2013-07-04 00:25:00,
2013-07-03 19:30:00,77.7,58.7,30.00,WSW,242,0.0,0.0,52,0.00,,---,0.00,VWS V14.01,2013-07-04 00:30:00,
2013-07-03 19:35:00,77.6,56.4,30.00,WSW,242,0.0,0.0,48,0.00,,---,0.00,VWS V14.01,2013-07-04 00:35:00,
2013-07-03 19:40:00,77.6,57.5,30.00,WSW,242,0.0,0.0,50,0.00,,---,0.00,VWS V14.01,2013-07-04 00:40:00,
2013-07-03 19:46:00,77.4,61.0,30.00,WSW,240,0.0,0.0,57,0.00,,---,0.00,VWS V14.01,2013-07-04 00:46:00,
2013-07-03 19:51:00,76.8,59.9,30.00,WSW,240,0.0,0.0,56,0.00,,---,0.00,VWS V14.01,2013-07-04 00:51:00,
2013-07-03 19:56:00,76.3,63.2,30.00,WSW,240,0.0,0.0,64,0.00,,---,0.00,VWS V14.01,2013-07-04 00:56:00,
2013-07-03 20:00:00,76.0,62.0,30.00,WSW,240,0.0,0.0,62,0.00,,---,0.00,VWS V14.01,2013-07-04 01:00:00,
2013-07-03 20:02:00,75.7,61.3,30.00,WSW,240,0.0,0.0,61,0.00,,---,0.00,VWS V14.01,2013-07-04 01:02:00,
2013-07-03 20:07:00,75.2,61.8,30.01,WSW,240,0.0,0.0,63,0.00,,---,0.00,VWS V14.01,2013-07-04 01:07:00,
2013-07-03 20:12:00,74.8,61.8,30.00,WSW,240,0.0,0.0,64,0.00,,---,0.00,VWS V14.01,2013-07-04 01:12:00,
2013-07-03 20:17:00,74.2,62.5,30.00,WSW,240,0.0,0.0,67,0.00,,---,0.00,VWS V14.01,2013-07-04 01:17:00,
2013-07-03 20:22:00,73.6,62.4,30.01,WSW,240,0.0,0.0,68,0.00,,---,0.00,VWS V14.01,2013-07-04 01:22:00,
2013-07-03 20:27:00,72.5,62.6,30.01,SSW,194,0.0,0.0,71,0.00,,---,0.00,VWS V14.01,2013-07-04 01:27:00,
2013-07-03 20:30:00,72.5,62.6,30.01,SSW,194,0.0,0.0,71,0.00,,---,0.00,VWS V14.01,2013-07-04 01:30:00,
2013-07-03 20:32:00,71.4,61.1,30.01,SSW,194,0.0,1.0,70,0.00,,---,0.00,VWS V14.01,2013-07-04 01:32:00,
2013-07-03 20:38:00,70.8,62.5,30.01,SSW,194,0.0,1.0,75,0.00,,---,0.00,VWS V14.01,2013-07-04 01:38:00,
2013-07-03 20:43:00,70.4,61.7,30.01,SSW,194,0.0,1.0,74,0.00,,---,0.00,VWS V14.01,2013-07-04 01:43:00,
2013-07-03 20:48:00,69.9,61.6,30.01,SSW,194,0.0,1.0,75,0.00,,---,0.00,VWS V14.01,2013-07-04 01:48:00,
2013-07-03 20:53:00,69.4,61.5,30.01,SSW,194,0.0,1.0,76,0.00,,---,0.00,VWS V14.01,2013-07-04 01:53:00,
2013-07-03 20:58:00,68.9,61.4,30.02,SSW,194,0.0,0.0,77,0.00,,---,0.00,VWS V14.01,2013-07-04 01:58:00,
2013-07-03 21:00:00,68.9,61.4,30.02,SSW,194,0.0,1.0,77,0.00,,---,0.00,VWS V14.01,2013-07-04 02:00:00,
2013-07-03 21:03:00,68.5,61.7,30.02,SSW,194,0.0,0.0,79,0.00,,---,0.00,VWS V14.01,2013-07-04 02:03:00,
2013-07-03 21:08:00,68.1,61.7,30.02,SSW,194,0.0,0.0,80,0.00,,---,0.00,VWS V14.01,2013-07-04 02:08:00,
2013-07-03 21:13:00,67.5,61.5,30.02,SSW,194,0.0,0.0,81,0.00,,---,0.00,VWS V14.01,2013-07-04 02:13:00,
2013-07-03 21:18:00,66.9,61.2,30.02,SSW,194,0.0,0.0,82,0.00,,---,0.00,VWS V14.01,2013-07-04 02:18:00,
2013-07-03 21:23:00,66.3,61.0,30.03,SSW,194,0.0,0.0,83,0.00,,---,0.00,VWS V14.01,2013-07-04 02:23:00,
2013-07-03 21:29:00,66.0,61.4,30.03,SSW,194,0.0,0.0,85,0.00,,---,0.00,VWS V14.01,2013-07-04 02:29:00,
2013-07-03 21:30:00,66.0,61.0,30.03,SSW,194,0.0,0.0,84,0.00,,---,0.00,VWS V14.01,2013-07-04 02:30:00,
2013-07-03 21:34:00,65.7,61.1,30.03,SSW,194,0.0,0.0,85,0.00,,---,0.00,VWS V14.01,2013-07-04 02:34:00,
2013-07-03 21:39:00,65.5,61.2,30.03,SSW,194,0.0,0.0,86,0.00,,---,0.00,VWS V14.01,2013-07-04 02:39:00,
2013-07-03 21:44:00,65.3,61.0,30.03,SSW,194,0.0,0.0,86,0.00,,---,0.00,VWS V14.01,2013-07-04 02:44:00,
2013-07-03 21:49:00,65.2,60.6,30.04,SSW,194,0.0,0.0,85,0.00,,---,0.00,VWS V14.01,2013-07-04 02:49:00,
2013-07-03 21:54:00,65.1,60.8,30.04,SSW,194,0.0,0.0,86,0.00,,---,0.00,VWS V14.01,2013-07-04 02:54:00,
2013-07-03 22:00:00,65.0,60.7,30.04,SSW,194,0.0,0.0,86,0.00,,---,0.00,VWS V14.01,2013-07-04 03:00:00,
2013-07-03 22:05:00,64.8,60.5,30.04,SSW,194,0.0,0.0,86,0.00,,---,0.00,VWS V14.01,2013-07-04 03:05:00,
2013-07-03 22:10:00,64.6,60.7,30.04,SSW,194,0.0,0.0,87,0.00,,---,0.00,VWS V14.01,2013-07-04 03:10:00,
2013-07-03 22:15:00,64.4,60.1,30.04,SSW,194,0.0,0.0,86,0.00,,---,0.00,VWS V14.01,2013-07-04 03:15:00,
2013-07-03 22:20:00,64.3,60.0,30.04,SSW,194,0.0,0.0,86,0.00,,---,0.00,VWS V14.01,2013-07-04 03:20:00,
2013-07-03 22:25:00,64.2,59.9,30.04,SSW,194,0.0,0.0,86,0.00,,---,0.00,VWS V14.01,2013-07-04 03:25:00,
2013-07-03 22:30:00,64.1,60.2,30.04,SSW,194,0.0,0.0,87,0.00,,---,0.00,VWS V14.01,2013-07-04 03:30:00,
2013-07-03 22:35:00,64.0,60.1,30.04,SSW,194,0.0,0.0,87,0.00,,---,0.00,VWS V14.01,2013-07-04 03:35:00,
2013-07-03 22:41:00,63.8,60.2,30.04,SSW,194,0.0,0.0,88,0.00,,---,0.00,VWS V14.01,2013-07-04 03:41:00,
2013-07-03 22:45:00,63.7,60.1,30.04,SSW,194,0.0,0.0,88,0.00,,---,0.00,VWS V14.01,2013-07-04 03:45:00,
2013-07-03 22:51:00,63.6,60.0,30.04,SSW,194,0.0,0.0,88,0.00,,---,0.00,VWS V14.01,2013-07-04 03:51:00,
2013-07-03 22:56:00,63.5,59.9,30.03,SSW,194,0.0,0.0,88,0.00,,---,0.00,VWS V14.01,2013-07-04 03:56:00,
2013-07-03 23:00:00,63.5,59.9,30.03,SSW,194,0.0,0.0,88,0.00,,---,0.00,VWS V14.01,2013-07-04 04:00:00,
2013-07-03 23:01:00,63.3,59.7,30.03,SSW,194,0.0,0.0,88,0.00,,---,0.00,VWS V14.01,2013-07-04 04:01:00,
2013-07-03 23:02:00,63.3,59.7,30.03,SSW,194,0.0,0.0,88,0.00,,---,0.00,VWS V14.01,2013-07-04 04:02:00,
2013-07-03 23:03:00,63.3,60.0,30.03,SSW,194,0.0,0.0,89,0.00,,---,0.00,VWS V14.01,2013-07-04 04:03:00,
2013-07-03 23:08:00,63.1,59.8,30.03,SSW,194,0.0,0.0,89,0.00,,---,0.00,VWS V14.01,2013-07-04 04:08:00,
2013-07-03 23:13:00,63.0,59.7,30.03,SSW,194,0.0,0.0,89,0.00,,---,0.00,VWS V14.01,2013-07-04 04:13:00,
2013-07-03 23:18:00,62.8,59.8,30.03,SSW,194,0.0,0.0,90,0.00,,---,0.00,VWS V14.01,2013-07-04 04:18:00,
2013-07-03 23:23:00,62.7,59.7,30.03,SSW,194,0.0,0.0,90,0.00,,---,0.00,VWS V14.01,2013-07-04 04:23:00,
2013-07-03 23:28:00,62.6,59.6,30.04,SSW,194,0.0,0.0,90,0.00,,---,0.00,VWS V14.01,2013-07-04 04:28:00,
2013-07-03 23:30:00,62.6,59.6,30.04,SSW,194,0.0,0.0,90,0.00,,---,0.00,VWS V14.01,2013-07-04 04:30:00,
2013-07-03 23:33:00,62.5,59.5,30.04,South,185,0.0,1.0,90,0.00,,---,0.00,VWS V14.01,2013-07-04 04:33:00,
2013-07-03 23:38:00,62.6,59.6,30.04,SE,146,1.0,4.0,90,0.00,,---,0.00,VWS V14.01,2013-07-04 04:38:00,
2013-07-03 23:43:00,62.6,59.9,30.04,SE,146,3.0,4.0,91,0.00,,---,0.00,VWS V14.01,2013-07-04 04:43:00,
2013-07-03 23:48:00,62.8,60.1,30.04,SE,144,3.0,4.0,91,0.00,,---,0.00,VWS V14.01,2013-07-04 04:48:00,
2013-07-03 23:53:00,63.0,59.7,30.04,SE,144,1.0,4.0,89,0.00,,---,0.00,VWS V14.01,2013-07-04 04:53:00,
2013-07-03 23:58:00,63.1,59.5,30.04,SSE,148,1.0,2.0,88,0.00,,---,0.00,VWS V14.01,2013-07-04 04:58:00,